TimePDT,TemperatureF,Dew PointF,Humidity,Sea Level PressureIn,VisibilityMPH,Wind Direction,Wind SpeedMPH,Gust SpeedMPH,PrecipitationIn,Events,Conditions,WindDirDegrees,DateUTC
12:53 AM,71.1,39.0,31,29.93,10.0,NW,13.8,26.5,N/A,,Clear,310,2013-03-31 07:53:00
1:53 AM,70.0,39.0,32,29.93,10.0,WNW,12.7,-,N/A,,Clear,300,2013-03-31 08:53:00
2:53 AM,70.0,37.0,30,29.92,10.0,WNW,12.7,21.9,N/A,,Clear,300,2013-03-31 09:53:00
3:53 AM,69.1,37.0,31,29.91,10.0,NW,15.0,19.6,N/A,,Clear,310,2013-03-31 10:53:00
4:53 AM,68.0,39.0,35,29.92,10.0,NW,10.4,-,N/A,,Clear,310,2013-03-31 11:53:00
5:53 AM,64.0,41.0,43,29.93,10.0,SSE,5.8,-,N/A,,Clear,160,2013-03-31 12:53:00
6:53 AM,64.0,42.1,45,29.95,10.0,Calm,Calm,-,N/A,,Clear,0,2013-03-31 13:53:00
7:53 AM,66.0,43.0,43,29.96,10.0,SSE,4.6,-,N/A,,Clear,160,2013-03-31 14:53:00
8:53 AM,71.1,42.1,35,29.96,10.0,SE,4.6,-,N/A,,Clear,140,2013-03-31 15:53:00
9:53 AM,73.9,42.1,32,29.97,10.0,Calm,Calm,-,N/A,,Clear,0,2013-03-31 16:53:00
10:53 AM,77.0,39.9,26,29.97,10.0,Variable,4.6,-,N/A,,Clear,0,2013-03-31 17:53:00
11:53 AM,82.0,37.0,20,29.96,10.0,North,11.5,23.0,N/A,,Clear,350,2013-03-31 18:53:00
12:53 PM,82.9,36.0,19,29.95,10.0,NW,9.2,21.9,N/A,,Scattered Clouds,320,2013-03-31 19:53:00
1:53 PM,82.9,37.9,20,29.92,10.0,WNW,12.7,24.2,N/A,,Scattered Clouds,300,2013-03-31 20:53:00
2:53 PM,84.0,39.0,20,29.89,10.0,WNW,11.5,24.2,N/A,,Clear,300,2013-03-31 21:53:00
3:53 PM,82.9,37.9,20,29.88,10.0,WNW,12.7,-,N/A,,Clear,300,2013-03-31 22:53:00
4:10 PM,82.4,35.6,19,29.88,10.0,North,10.4,24.2,N/A,,Scattered Clouds,10,2013-03-31 23:10:00
4:53 PM,82.0,39.0,22,29.87,10.0,SSE,8.1,-,N/A,,Partly Cloudy,160,2013-03-31 23:53:00
5:53 PM,80.1,37.9,22,29.87,10.0,SSW,8.1,19.6,N/A,,Clear,210,2013-04-01 00:53:00
6:53 PM,75.9,41.0,29,29.88,10.0,North,15.0,19.6,N/A,,Clear,350,2013-04-01 01:53:00
7:53 PM,73.0,41.0,31,29.90,10.0,WNW,11.5,18.4,N/A,,Clear,290,2013-04-01 02:53:00
8:53 PM,71.1,39.9,32,29.92,10.0,NW,16.1,24.2,N/A,,Clear,310,2013-04-01 03:53:00
9:53 PM,69.1,37.9,32,29.94,10.0,SSE,9.2,-,N/A,,Clear,160,2013-04-01 04:53:00
10:53 PM,69.1,37.0,31,29.94,10.0,ESE,5.8,-,N/A,,Clear,110,2013-04-01 05:53:00
11:53 PM,66.9,37.9,34,29.94,10.0,NE,5.8,-,N/A,,Clear,50,2013-04-01 06:53:00